Davenport, IA

3:15 AM CST on January 22, 2018 (GMT -0600)
Davenport Municipal

Weather History for KDVN - January, 2014

Change the Weather History Date:

Monday, January 20, 2014

  Actual Average Record
Temperature  
Mean Temperature 24 °F 21 °F  
Max Temperature 35 °F 30 °F 51 °F (1967)
Min Temperature 13 °F 12 °F -14 °F (1970)
Degree Days  
Heating Degree Days 41 44  
Month to date heating degree days 972 879  
Since 1 July heating degree days 3804 3459  
Cooling Degree Days 0 0  
Month to date cooling degree days 0 0  
Year to date cooling degree days 0 0  
Moisture  
Dew Point 22 °F    
Average Humidity 84    
Maximum Humidity 92    
Minimum Humidity 75    
Precipitation  
Precipitation 0.07 in 0.04 in 0.82 in (1974)
Month to date precipitation 0.66 0.53  
Year to date precipitation 0.66 0.53  
Snow  
Snow 1.40 in - - ()
Month to date snowfall 8.7  
Since 1 July snowfall 25.9  
Snow Depth 1.00 in    
Sea Level Pressure  
Sea Level Pressure 29.96 in    
Wind  
Wind Speed 13 mph (NNW)    
Max Wind Speed 29 mph    
Max Gust Speed 36 mph    
Visibility 5 miles    
Events Snow    
T = Trace of Precipitation, MM = Missing Value Source: NWS Daily Summary

Daily Weather History Graph

Daily Weather History Graph

Search for Another Location

Airport or City:

Trip Planner

Search our weather history database for the weather conditions in past years. The results will help you decide how hot, cold, wet, or windy it might be!

Date:

Astronomy

Jan. 20, 2014 Rise Set
Actual Time 7:24 AM CST 5:03 PM CST
Civil Twilight 6:53 AM CST 5:33 PM CST
Nautical Twilight 6:19 AM CST 6:07 PM CST
Astronomical Twilight 5:46 AM CST 6:40 PM CST
Moon 9:42 PM CST (1/20) 9:20 AM CST (1/20)
Length of Visible Light 10h 39m
Length of Day
9h 39m
Waning Gibbous, 82% of the Moon is Illuminated
Jan 20
Waning Gibbous
Jan 23
Last Quarter
Jan 30
New
Feb 6
First Quarter
Feb 14
Full

Hourly Weather History & Observations

Time (CST) Temp. Windchill Dew Point Humidity Pressure Visibility Wind Dir Wind Speed Gust Speed Precip Events Conditions
12:52 AM 34.0 °F 25.0 °F 28.9 °F 82% 29.73 in 10.0 mi WNW 12.7 mph - N/A   Overcast
1:52 AM 34.0 °F 25.0 °F 27.0 °F 75% 29.76 in 10.0 mi WNW 12.7 mph - N/A   Mostly Cloudy
2:18 AM 33.8 °F 24.8 °F 26.6 °F 75% 29.75 in 10.0 mi NW 12.7 mph - N/A   Scattered Clouds
2:52 AM 32.0 °F 23.0 °F 26.1 °F 79% 29.79 in 10.0 mi WNW 11.5 mph - N/A   Clear
3:52 AM 30.0 °F 20.0 °F 26.1 °F 85% 29.82 in 10.0 mi WNW 12.7 mph - N/A   Clear
4:52 AM 28.0 °F 19.3 °F 24.1 °F 85% 29.85 in 8.0 mi West 9.2 mph - N/A   Clear
5:52 AM 27.0 °F 18.0 °F 24.1 °F 89% 29.85 in 9.0 mi West 9.2 mph - N/A   Clear
6:52 AM 25.0 °F 17.1 °F 21.9 °F 88% 29.86 in 7.0 mi West 6.9 mph - N/A   Clear
7:52 AM 26.1 °F 18.4 °F 23.0 °F 88% 29.86 in 6.0 mi WNW 6.9 mph - N/A   Clear
8:52 AM 26.1 °F 18.4 °F 21.9 °F 84% 29.91 in 5.0 mi SW 6.9 mph - N/A   Clear
9:52 AM 30.0 °F 20.5 °F 26.1 °F 85% 29.94 in 6.0 mi West 11.5 mph - N/A   Scattered Clouds
10:00 AM 30.2 °F 21.9 °F 26.6 °F 86% 29.91 in 6.0 mi West 9.2 mph - N/A   Mostly Cloudy
10:08 AM 30.2 °F 21.3 °F 26.6 °F 86% 29.92 in 6.0 mi West 10.4 mph - N/A   Scattered Clouds
10:15 AM 30.2 °F 21.3 °F 26.6 °F 86% 29.92 in 6.0 mi West 10.4 mph - N/A   Mostly Cloudy
10:52 AM 33.1 °F 23.4 °F 28.0 °F 82% 29.95 in 7.0 mi West 13.8 mph - N/A   Mostly Cloudy
11:52 AM 33.1 °F 24.4 °F 27.0 °F 78% 29.95 in 8.0 mi NNW 11.5 mph - N/A   Overcast
12:52 PM 32.0 °F 23.0 °F 26.1 °F 79% 29.94 in 10.0 mi NW 11.5 mph - N/A   Overcast
1:10 PM 33.8 °F 27.0 °F 24.8 °F 70% 29.91 in 10.0 mi WNW 8.1 mph - N/A   Scattered Clouds
1:52 PM 33.1 °F 24.9 °F 26.1 °F 75% 29.94 in 10.0 mi WNW 10.4 mph - N/A   Mostly Cloudy
2:52 PM 32.0 °F 23.6 °F 26.1 °F 79% 29.94 in 10.0 mi West 10.4 mph - N/A   Overcast
3:52 PM 32.0 °F 24.8 °F 26.1 °F 79% 29.96 in 10.0 mi NW 8.1 mph - N/A   Overcast
4:52 PM 32.0 °F 25.6 °F 26.1 °F 79% 29.96 in 9.0 mi NNW 6.9 mph - N/A   Overcast
5:36 PM 30.2 °F 21.3 °F 26.6 °F 86% 29.94 in 2.5 mi North 10.4 mph - 0.00 in Snow Light Snow
5:48 PM 30.2 °F 22.6 °F 26.6 °F 86% 29.94 in 1.8 mi North 8.1 mph - 0.00 in Snow Light Snow
5:52 PM 30.0 °F 22.4 °F 28.0 °F 92% 29.97 in 1.8 mi NNE 8.1 mph - 0.00 in Snow Light Snow
5:57 PM 30.2 °F 21.9 °F 28.4 °F 93% 29.94 in 2.0 mi North 9.2 mph - 0.00 in Snow Light Snow
6:09 PM 30.2 °F 22.6 °F 26.6 °F 86% 29.94 in 1.8 mi NNE 8.1 mph - 0.00 in Snow Light Snow
6:36 PM 30.2 °F 21.3 °F 26.6 °F 86% 29.95 in 0.8 mi North 10.4 mph - 0.00 in Snow Light Snow
6:52 PM 30.0 °F 20.5 °F 27.0 °F 88% 29.99 in 1.0 mi North 11.5 mph - 0.01 in Snow Light Snow
7:12 PM 28.4 °F 14.7 °F 26.6 °F 93% 29.97 in 0.8 mi North 21.9 mph 34.5 mph 0.01 in Snow Light Snow
7:21 PM 24.8 °F 9.6 °F 21.2 °F 86% 29.97 in 0.8 mi NE 23.0 mph 34.5 mph 0.01 in Snow Light Snow
7:32 PM 23.0 °F 6.6 °F 19.4 °F 86% 29.98 in 1.0 mi NE 25.3 mph 34.5 mph 0.01 in Snow Light Snow
7:52 PM 21.0 °F 3.9 °F 17.1 °F 85% 30.03 in 1.2 mi NE 25.3 mph 33.4 mph 0.01 in Snow Light Snow
8:52 PM 17.1 °F -1.0 °F 12.9 °F 84% 30.09 in 1.8 mi NE 24.2 mph 29.9 mph 0.00 in Snow Light Snow
9:05 PM 15.8 °F -2.3 °F 12.2 °F 86% 30.05 in 1.8 mi NE 23.0 mph 31.1 mph 0.00 in Snow Light Snow
9:25 PM 15.8 °F 0.9 °F 12.2 °F 86% 30.07 in 1.2 mi NE 15.0 mph - 0.00 in Snow Light Snow
9:38 PM 15.8 °F -1.1 °F 10.4 °F 79% 30.09 in 1.0 mi NE 19.6 mph - 0.00 in Snow Light Snow
9:52 PM 15.1 °F -2.0 °F 10.9 °F 84% 30.12 in 1.0 mi NNE 19.6 mph 25.3 mph 0.00 in Snow Light Snow
10:06 PM 15.8 °F -1.9 °F 10.4 °F 79% 30.10 in 2.0 mi NNE 21.9 mph 27.6 mph 0.00 in Snow Light Snow
10:18 PM 14.0 °F -5.1 °F 10.4 °F 86% 30.11 in 1.5 mi NNE 24.2 mph 28.8 mph 0.00 in Snow Light Snow
10:30 PM 14.0 °F -4.3 °F 10.4 °F 86% 30.12 in 2.0 mi NNE 21.9 mph - 0.00 in Snow Light Snow
10:40 PM 14.0 °F -4.3 °F 8.6 °F 79% 30.13 in 1.5 mi NNE 21.9 mph - 0.00 in Snow Light Snow
10:52 PM 14.0 °F -4.7 °F 9.0 °F 80% 30.17 in 1.5 mi NNE 23.0 mph 27.6 mph 0.00 in Snow Light Snow
11:52 PM 12.9 °F -3.9 °F 9.0 °F 84% 30.19 in 2.0 mi NNE 17.3 mph - 0.00 in Snow Light Snow